STARLINK-35796

Last updated on Fri Dec 19 2025 00:02:05 GMT+0000 (Coordinated Universal Time)

1 66541U 25265AB 25352.40464732 .00035685 00000+0 85690-3 0 9996 2 66541 43.0035 21.1735 0001963 271.2311 88.8321 15.40722032 4633
UTC large
Height (km)
Speed (km/s)
/
Latitude / Longitude
Inclination (degrees)
Orbital Period (minutes)
Azimuth
Elevation
Range (km)
Doppler Factor

Next 0 passes for location: London (51.5072 / 0.1276)

Sorry there are no passes over London.